DW7590 Weather Reports


Display with metric or nautical units.
time (UTC)temp
F
wind
direction
speed
MPH
gust
MPH
rain 1hr
in
rain 24hr
in
rain mn
in
humidity
%
barometer
mb
20260510011249 77 137 6.0 8.0 0.00 0.00 0.00 42 1007.4
20260510010749 78 115 5.0 9.0 0.00 0.00 0.00 42 1007.2
20260510010249 78 155 5.0 9.0 0.00 0.00 0.00 42 1007.3
20260510005749 78 149 5.0 9.0 0.00 0.00 0.00 41 1007.3
20260510005249 79 127 5.0 9.0 0.00 0.00 0.00 40 1007.4
20260510004748 79 134 5.0 8.0 0.00 0.00 0.00 40 1007.4
20260510003749 80 133 2.0 10.0 0.00 0.00 0.00 39 1007.3
20260510003249 80 147 5.0 9.0 0.00 0.00 0.00 38 1007.3
20260510002750 80 133 1.0 9.0 0.00 0.00 0.00 38 1007.4
20260510002249 81 136 5.0 9.0 0.00 0.00 0.00 37 1007.5
20260510001249 81 132 3.0 12.0 0.00 0.00 0.00 36 1007.6
20260510000249 82 155 2.0 9.0 0.00 0.00 0.00 35 1007.5
20260509235750 82 133 3.0 10.0 0.00 0.00 0.00 34 1007.6
20260509235249 83 116 2.0 12.0 0.00 0.00 0.00 34 1007.6
20260509234249 83 146 12.0 12.0 0.00 0.00 0.00 33 1007.5
20260509233749 84 160 7.0 14.0 0.00 0.00 0.00 33 1007.6
20260509233249 84 144 5.0 14.0 0.00 0.00 0.00 34 1007.6
20260509232749 84 142 12.0 13.0 0.00 0.00 0.00 33 1007.6
20260509232249 84 157 7.0 13.0 0.00 0.00 0.00 32 1007.6
20260509231749 84 143 5.0 13.0 0.00 0.00 0.00 31 1007.5
20260509231248 84 157 3.0 12.0 0.00 0.00 0.00 30 1007.6
20260509230749 84 138 5.0 13.0 0.00 0.00 0.00 30 1007.7
20260509230249 84 157 6.0 13.0 0.00 0.00 0.00 30 1007.7
20260509225249 84 188 13.0 13.0 0.00 0.02 0.00 30 1007.8
20260509224750 84 145 6.0 13.0 0.00 0.02 0.00 30 1007.9
20260509224249 84 153 3.0 12.0 0.00 0.03 0.00 30 1008.0
20260509223749 84 145 3.0 16.0 0.00 0.03 0.00 32 1008.0
20260509223249 84 166 2.0 16.0 0.00 0.03 0.00 30 1008.1
20260509222749 84 99 1.0 16.0 0.00 0.03 0.00 31 1008.1
20260509222249 85 128 9.0 14.0 0.00 0.03 0.00 32 1008.2
20260509221750 86 159 7.0 9.0 0.00 0.03 0.00 32 1008.2
20260509221249 85 216 7.0 9.0 0.00 0.03 0.00 34 1008.3
20260509220749 85 188 5.0 9.0 0.00 0.03 0.00 33 1008.4
20260509220249 85 227 5.0 10.0 0.00 0.03 0.00 33 1008.4
20260509215749 84 211 7.0 17.0 0.00 0.03 0.00 33 1008.4
20260509214249 85 182 2.0 14.0 0.00 0.03 0.00 32 1008.3
20260509213750 85 273 5.0 14.0 0.00 0.03 0.00 32 1008.3
20260509213250 86 116 12.0 12.0 0.00 0.03 0.00 32 1008.4
20260509212749 86 249 5.0 10.0 0.00 0.03 0.00 34 1008.5
20260509212249 85 184 6.0 12.0 0.00 0.03 0.00 33 1008.6
20260509211748 85 159 7.0 12.0 0.00 0.03 0.00 32 1008.7
20260509211249 85 242 2.0 12.0 0.00 0.03 0.00 34 1008.8
20260509210748 84 193 1.0 12.0 0.00 0.03 0.00 33 1008.8
20260509210249 85 135 6.0 10.0 0.00 0.03 0.00 32 1008.9
20260509205749 84 132 6.0 9.0 0.00 0.03 0.00 31 1008.8
20260509205249 84 151 1.0 10.0 0.00 0.03 0.00 32 1008.9
20260509204749 84 134 7.0 12.0 0.00 0.03 0.00 33 1009.0
20260509204248 84 92 1.0 12.0 0.00 0.03 0.00 31 1009.2
20260509203749 84 152 6.0 12.0 0.00 0.03 0.00 32 1009.2
20260509202749 84 56 3.0 12.0 0.00 0.03 0.00 31 1009.3
20260509202249 84 141 3.0 8.0 0.00 0.03 0.00 32 1009.3
20260509201750 84 139 1.0 8.0 0.00 0.03 0.00 30 1009.4
20260509201250 84 160 2.0 8.0 0.00 0.03 0.00 30 1009.4
20260509200750 84 141 2.0 5.0 0.00 0.03 0.00 31 1009.5
20260509200249 83 201 1.0 5.0 0.00 0.03 0.00 28 1009.5
20260509195749 83 136 5.0 7.0 0.00 0.03 0.00 29 1009.5
20260509195249 83 255 2.0 10.0 0.00 0.03 0.00 32 1009.6
20260509194749 83 120 2.0 10.0 0.00 0.03 0.00 32 1009.7
20260509194249 83 151 5.0 9.0 0.00 0.03 0.00 29 1009.8
20260509193749 83 195 1.0 9.0 0.00 0.03 0.00 29 1009.8
20260509193249 84 145 7.0 8.0 0.00 0.03 0.00 28 1009.8
20260509192749 83 161 2.0 7.0 0.00 0.03 0.00 31 1009.9
20260509192249 83 249 1.0 9.0 0.00 0.03 0.00 31 1009.9
20260509191749 83 174 3.0 9.0 0.00 0.03 0.00 32 1010.0
20260509191249 83 144 5.0 7.0 0.00 0.03 0.00 33 1010.1
20260509190749 83 193 3.0 8.0 0.00 0.03 0.00 37 1010.3
20260509190249 83 166 2.0 8.0 0.00 0.03 0.00 33 1010.2
20260509185749 83 225 2.0 7.0 0.00 0.03 0.00 34 1010.3
20260509185249 83 258 1.0 9.0 0.00 0.03 0.00 34 1010.3
20260509184249 83 191 3.0 10.0 0.00 0.03 0.00 31 1010.5
20260509183250 82 153 1.0 9.0 0.00 0.03 0.00 38 1010.7
20260509182249 82 243 8.0 8.0 0.00 0.03 0.00 39 1010.8
20260509181248 82 236 3.0 13.0 0.00 0.03 0.00 39 1010.9
20260509180249 81 220 1.0 9.0 0.00 0.03 0.00 44 1011.0
20260509175249 80 269 5.0 10.0 0.00 0.03 0.00 45 1011.2
20260509174749 80 151 3.0 10.0 0.00 0.03 0.00 48 1011.3
20260509174248 80 269 3.0 7.0 0.00 0.03 0.00 50 1011.3
20260509173748 79 240 1.0 8.0 0.00 0.03 0.00 50 1011.3
20260509173248 79 233 7.0 12.0 0.00 0.03 0.00 47 1011.4
20260509172750 79 135 5.0 12.0 0.00 0.03 0.00 46 1011.4
20260509172249 79 141 9.0 12.0 0.00 0.03 0.00 46 1011.4
20260509171749 79 151 9.0 12.0 0.00 0.03 0.00 48 1011.6
20260509171249 79 174 2.0 12.0 0.00 0.03 0.00 48 1011.6
20260509170749 78 150 11.0 13.0 0.00 0.03 0.00 48 1011.4
20260509170248 78 159 3.0 13.0 0.00 0.03 0.00 47 1011.4
20260509165749 78 141 6.0 12.0 0.00 0.03 0.00 53 1011.4
20260509165249 77 138 3.0 12.0 0.00 0.03 0.00 52 1011.5
20260509164249 77 182 2.0 9.0 0.00 0.03 0.00 51 1011.6
20260509163749 77 131 9.0 10.0 0.00 0.03 0.00 52 1011.7
20260509163250 77 101 2.0 10.0 0.00 0.03 0.00 52 1011.7
20260509162749 76 117 5.0 8.0 0.00 0.03 0.00 52 1011.8
20260509162248 76 101 2.0 8.0 0.00 0.03 0.00 54 1011.8
20260509161249 75 173 1.0 5.0 0.00 0.03 0.00 57 1011.9
20260509160250 75 174 1.0 7.0 0.00 0.03 0.00 60 1011.8
20260509155749 75 129 2.0 7.0 0.00 0.03 0.00 59 1011.6
20260509154748 74 154 5.0 4.0 0.00 0.03 0.00 62 1011.8
20260509154248 73 168 5.0 5.0 0.00 0.03 0.00 63 1011.7
20260509153248 73 97 6.0 9.0 0.00 0.03 0.00 63 1011.3
20260509152748 73 160 1.0 5.0 0.00 0.03 0.00 64 1011.5
20260509152248 73 139 3.0 7.0 0.00 0.03 0.00 63 1011.5
20260509151748 73 119 2.0 7.0 0.00 0.03 0.00 61 1011.6
20260509151250 73 162 2.0 4.0 0.00 0.03 0.00 64 1011.7
20260509150749 72 168 2.0 4.0 0.00 0.03 0.00 71 1011.5
20260509150248 71 145 1.0 4.0 0.00 0.03 0.00 73 1011.6
20260509145748 70 141 1.0 8.0 0.00 0.03 0.00 76 1011.4
20260509144749 70 141 3.0 7.0 0.00 0.03 0.00 77 1011.3
20260509143749 69 208 1.0 0.0 0.00 0.03 0.00 83 1011.5
20260509142748 67 209 1.0 0.0 0.00 0.03 0.00 82 1011.4
20260509142249 67 209 1.0 0.0 0.00 0.03 0.00 83 1011.4
20260509141750 66 209 1.0 0.0 0.00 0.03 0.00 84 1011.4
20260509141248 66 209 1.0 0.0 0.00 0.03 0.00 84 1011.3
20260509140748 66 209 1.0 0.0 0.00 0.03 0.00 85 1011.3
20260509140249 65 208 1.0 4.0 0.00 0.03 0.00 87 1011.2
20260509135749 64 208 1.0 4.0 0.00 0.03 0.00 88 1011.2
20260509135248 64 222 1.0 4.0 0.00 0.03 0.00 88 1011.2
20260509134750 63 225 1.0 1.0 0.00 0.03 0.00 88 1011.1
20260509134249 63 272 2.0 1.0 0.00 0.03 0.00 90 1011.0
20260509133750 63 285 1.0 3.0 0.00 0.03 0.00 90 1011.0
20260509133249 63 288 1.0 3.0 0.00 0.03 0.00 90 1011.0
20260509132748 62 344 1.0 0.0 0.00 0.03 0.00 91 1010.9
20260509132248 62 344 1.0 0.0 0.00 0.03 0.00 90 1010.9
20260509131748 62 351 1.0 0.0 0.00 0.03 0.00 91 1010.9
20260509131248 62 351 1.0 0.0 0.00 0.03 0.00 91 1010.7
20260509130248 61 15 1.0 4.0 0.00 0.03 0.00 92 1010.6
20260509125749 61 15 1.0 4.0 0.00 0.03 0.00 91 1010.4
20260509125249 61 3 1.0 3.0 0.00 0.03 0.00 92 1010.4
20260509124748 60 1 1.0 0.0 0.00 0.03 0.00 93 1010.6
20260509124250 60 1 1.0 0.0 0.00 0.03 0.00 92 1010.6
20260509123749 59 1 1.0 0.0 0.00 0.03 0.00 93 1010.4
20260509123250 58 1 1.0 0.0 0.00 0.03 0.00 93 1010.3
20260509122749 58 1 1.0 0.0 0.00 0.03 0.00 92 1010.3
20260509121748 58 1 1.0 0.0 0.00 0.03 0.00 92 1010.2
20260509121249 57 1 1.0 0.0 0.00 0.03 0.00 92 1010.0
20260509120249 57 1 1.0 1.0 0.00 0.03 0.00 92 1009.8
20260509115749 57 1 1.0 1.0 0.00 0.03 0.00 92 1009.7
20260509115249 57 3 1.0 3.0 0.00 0.03 0.00 92 1009.7
20260509114750 56 4 1.0 3.0 0.00 0.03 0.00 92 1009.9
20260509113749 56 324 1.0 0.0 0.00 0.03 0.00 92 1009.9
20260509113249 55 322 1.0 0.0 0.00 0.03 0.00 91 1009.7
20260509112749 55 319 1.0 0.0 0.00 0.03 0.00 91 1009.7
20260509111749 56 319 1.0 0.0 0.00 0.03 0.00 91 1009.7
20260509111248 56 319 1.0 1.0 0.00 0.03 0.00 91 1009.7
20260509110749 56 318 1.0 1.0 0.00 0.03 0.00 91 1009.6
20260509110248 56 304 1.0 3.0 0.00 0.03 0.00 91 1009.7
20260509105748 56 330 1.0 3.0 0.00 0.03 0.00 91 1009.7
20260509105249 56 326 1.0 3.0 0.00 0.03 0.00 91 1009.7
20260509104748 56 326 1.0 3.0 0.00 0.03 0.00 92 1009.9
20260509104249 55 10 1.0 3.0 0.00 0.03 0.00 91 1009.8
20260509103749 55 121 1.0 0.0 0.00 0.03 0.00 90 1009.9
20260509103248 55 122 1.0 0.0 0.00 0.03 0.00 90 1009.8
20260509101748 55 122 1.0 0.0 0.00 0.03 0.00 90 1009.9
20260509100749 56 122 1.0 0.0 0.00 0.03 0.00 89 1010.0
20260509100249 56 122 1.0 1.0 0.00 0.03 0.00 89 1010.2
20260509095749 57 122 1.0 1.0 0.00 0.03 0.00 89 1010.1
20260509095249 57 20 1.0 0.0 0.00 0.03 0.00 90 1010.2
20260509094249 58 20 1.0 0.0 0.00 0.03 0.00 90 1010.5
20260509093749 58 20 1.0 1.0 0.00 0.03 0.00 90 1010.5
20260509093249 59 39 1.0 1.0 0.00 0.03 0.00 91 1010.5
20260509092749 59 76 1.0 1.0 0.00 0.03 0.00 91 1010.5
20260509092249 58 76 1.0 1.0 0.00 0.03 0.00 91 1010.5
20260509091750 58 93 1.0 1.0 0.00 0.03 0.00 91 1010.5
20260509091248 58 94 1.0 0.0 0.00 0.03 0.00 91 1010.6
20260509090748 58 94 1.0 0.0 0.00 0.03 0.00 91 1010.6
20260509090249 57 94 1.0 0.0 0.00 0.03 0.00 90 1010.6
20260509085748 58 94 1.0 1.0 0.00 0.03 0.00 90 1010.6
20260509084748 58 95 1.0 0.0 0.00 0.03 0.00 91 1010.5
20260509084249 58 98 1.0 1.0 0.00 0.03 0.00 91 1010.5
20260509083749 58 98 1.0 1.0 0.00 0.03 0.00 90 1010.5
20260509083248 58 116 1.0 0.0 0.00 0.03 0.00 90 1010.6
20260509082749 58 116 1.0 0.0 0.00 0.03 0.00 90 1010.6
20260509081748 58 116 1.0 0.0 0.00 0.03 0.00 90 1010.7
20260509081249 58 116 1.0 0.0 0.00 0.03 0.00 90 1010.6
20260509080749 57 116 1.0 0.0 0.00 0.03 0.00 90 1010.8
20260509075250 57 116 1.0 0.0 0.00 0.03 0.00 89 1011.1
20260509074248 58 116 1.0 0.0 0.00 0.03 0.00 89 1011.2
20260509072748 58 116 1.0 0.0 0.00 0.03 0.00 88 1011.1
20260509072249 58 116 1.0 0.0 0.00 0.03 0.00 88 1011.2
20260509071749 58 116 1.0 0.0 0.00 0.03 0.00 88 1011.2
20260509071249 59 116 1.0 0.0 0.00 0.03 0.00 88 1011.2
20260509070748 59 116 1.0 0.0 0.00 0.03 0.00 87 1011.2
20260509070248 59 116 1.0 0.0 0.00 0.03 0.00 87 1011.2
20260509065748 59 116 1.0 0.0 0.00 0.03 0.00 87 1011.1
20260509065249 60 116 1.0 0.0 0.00 0.03 0.00 87 1011.1
20260509064249 60 116 1.0 0.0 0.00 0.03 0.00 87 1010.7
20260509063748 60 116 1.0 3.0 0.00 0.03 0.00 87 1010.8
20260509063249 60 116 1.0 4.0 0.00 0.03 0.00 87 1011.0
20260509062748 60 116 1.0 4.0 0.00 0.03 0.00 87 1011.1
20260509061748 61 120 1.0 3.0 0.00 0.03 0.00 87 1011.3
20260509061248 61 119 1.0 5.0 0.00 0.03 0.00 87 1011.2
20260509060750 61 119 3.0 5.0 0.00 0.03 0.00 87 1011.2
20260509060249 61 119 3.0 4.0 0.00 0.03 0.00 87 1011.2
20260509055748 61 120 2.0 4.0 0.00 0.03 0.00 87 1011.2
20260509055249 61 114 3.0 4.0 0.00 0.03 0.00 86 1011.2
20260509054749 61 109 3.0 4.0 0.00 0.03 0.00 86 1011.1
20260509054249 61 109 2.0 4.0 0.00 0.03 0.00 87 1011.1
20260509053748 61 110 1.0 4.0 0.00 0.03 0.00 86 1011.0
20260509053248 62 108 2.0 4.0 0.00 0.03 0.00 86 1011.0
20260509052750 62 83 1.0 4.0 0.00 0.03 0.00 86 1011.1
20260509052248 62 88 2.0 4.0 0.00 0.03 0.00 86 1011.0
20260509051748 62 93 3.0 3.0 0.00 0.03 0.00 86 1010.9
20260509051248 62 115 1.0 0.0 0.00 0.03 0.00 86 1010.9
20260509050748 62 116 1.0 1.0 0.00 0.03 0.00 86 1011.0
20260509050249 62 116 1.0 3.0 0.00 0.03 0.00 86 1011.1
20260509045749 62 116 1.0 4.0 0.00 0.03 0.00 86 1011.1
20260509045248 62 117 3.0 4.0 0.00 0.03 0.00 86 1011.1
20260509044748 62 118 2.0 4.0 0.00 0.03 0.03 86 1011.0
20260509044249 63 119 1.0 5.0 0.00 0.03 0.03 86 1011.0
20260509043749 63 117 3.0 10.0 0.00 0.03 0.03 85 1011.1
20260509042748 63 82 6.0 12.0 0.00 0.03 0.03 85 1011.2
20260509042249 63 121 3.0 8.0 0.00 0.03 0.03 85 1011.2
20260509041748 63 108 6.0 8.0 0.00 0.03 0.03 85 1011.1
20260509040748 63 103 2.0 5.0 0.00 0.03 0.03 85 1011.0
20260509040248 63 103 5.0 5.0 0.00 0.03 0.03 85 1010.9
20260509035749 63 59 2.0 9.0 0.00 0.03 0.03 85 1010.9
20260509035248 63 73 1.0 9.0 0.00 0.03 0.03 85 1011.0
20260509034749 63 81 2.0 7.0 0.00 0.03 0.03 85 1010.9
20260509034249 63 72 3.0 5.0 0.00 0.03 0.03 85 1010.7
20260509033749 63 74 2.0 5.0 0.00 0.03 0.03 86 1010.6
20260509032749 63 167 1.0 0.0 0.00 0.03 0.03 86 1010.2
20260509031748 63 167 1.0 0.0 0.00 0.03 0.03 85 1010.0
20260509031250 63 167 1.0 0.0 0.00 0.03 0.03 85 1009.7
20260509030248 63 167 1.0 0.0 0.00 0.03 0.03 84 1009.4
20260509025249 64 167 1.0 1.0 0.00 0.03 0.03 84 1009.4
20260509024748 64 167 2.0 1.0 0.00 0.03 0.03 84 1009.1
20260509024248 64 166 1.0 1.0 0.00 0.03 0.03 84 1009.0
20260509023748 64 166 1.0 1.0 0.00 0.03 0.03 84 1009.0
20260509022748 64 166 1.0 5.0 0.00 0.03 0.03 84 1008.9
20260509022248 64 148 2.0 7.0 0.00 0.03 0.03 84 1008.8
20260509021249 65 134 2.0 5.0 0.00 0.03 0.03 84 1008.6
20260509020748 65 124 2.0 5.0 0.00 0.03 0.03 84 1008.5
20260509020250 65 113 3.0 4.0 0.00 0.03 0.03 84 1008.4
20260509015748 65 124 3.0 4.0 0.00 0.03 0.03 83 1008.2
20260509014748 66 118 1.0 7.0 0.00 0.03 0.03 82 1008.0
20260509014249 66 118 2.0 7.0 0.00 0.03 0.03 82 1007.8
20260509012748 67 184 1.0 0.0 0.00 0.03 0.03 80 1007.6
20260509012248 68 189 1.0 0.0 0.00 0.03 0.03 80 1007.5
20260509011749 68 189 1.0 4.0 0.00 0.03 0.03 79 1007.5